FW4761 Weather Reports


Display with metric or nautical units.
time (UTC)temp
F
wind
direction
speed
MPH
gust
MPH
rain 1hr
in
rain 24hr
in
rain mn
in
humidity
%
barometer
mb
20260509042013 70 0 6.0 9.0 0.00 0.00 0.00 82 975.1
20260509041512 71 195 4.0 8.0 0.00 0.00 0.00 82 975.6
20260509041012 71 222 3.0 8.0 0.00 0.00 0.00 81 975.8
20260509040510 71 209 4.0 8.0 0.00 0.00 0.00 81 975.6
20260509040008 71 241 4.0 11.0 0.00 0.00 0.00 82 975.9
20260509035509 70 313 8.0 17.0 0.00 0.00 0.00 82 976.7
20260509035008 69 346 10.0 21.0 0.00 0.00 0.00 83 976.7
20260509034508 69 329 6.0 21.0 0.00 0.00 0.00 83 976.8
20260509034009 69 0 1.0 9.0 0.00 0.00 0.00 82 975.8
20260509033008 69 0 3.0 8.0 0.00 0.00 0.00 82 974.4
20260509032511 69 166 2.0 5.0 0.00 0.00 0.00 82 974.6
20260509032005 69 0 2.0 5.0 0.00 0.00 0.00 82 974.7
20260509031458 69 0 3.0 8.0 0.00 0.00 0.00 82 974.5
20260509030446 70 0 3.0 9.0 0.00 0.00 0.00 81 974.2
20260509025939 70 0 2.0 5.0 0.00 0.00 0.00 81 974.4
20260509024422 70 0 4.0 13.0 0.00 0.00 0.00 80 973.8
20260509023916 71 0 5.0 13.0 0.00 0.00 0.00 79 973.8
20260509023410 71 0 7.0 13.0 0.00 0.00 0.00 79 973.6
20260509022904 71 0 9.0 14.0 0.00 0.00 0.00 79 973.2
20260509021852 71 0 7.0 12.0 0.00 0.00 0.00 78 973.1
20260509021345 71 0 4.0 10.0 0.00 0.00 0.00 78 973.4
20260509020840 71 0 2.0 8.0 0.00 0.00 0.00 77 973.9
20260509020333 72 0 2.0 8.0 0.00 0.00 0.00 77 974.2
20260509015827 72 0 2.0 6.0 0.00 0.00 0.00 77 974.4
20260509015322 72 0 3.0 6.0 0.00 0.00 0.00 77 974.3
20260509014310 72 0 3.0 6.0 0.00 0.00 0.00 77 973.8
20260509013804 72 173 3.0 9.0 0.00 0.00 0.00 77 973.2
20260509013258 72 171 4.0 9.0 0.00 0.00 0.00 76 972.9
20260509012752 73 186 5.0 10.0 0.00 0.00 0.00 75 972.6
20260509011233 73 201 7.0 14.0 0.00 0.00 0.00 74 971.8
20260509010727 73 175 7.0 13.0 0.00 0.00 0.00 73 971.7
20260509010221 74 177 8.0 13.0 0.00 0.00 0.00 72 971.8
20260509005715 74 203 7.0 13.0 0.00 0.00 0.00 72 972.2
20260509005210 74 167 6.0 10.0 0.00 0.00 0.00 71 972.5
20260509004157 75 174 7.0 12.0 0.00 0.00 0.00 70 972.6
20260509003651 75 184 6.0 11.0 0.00 0.00 0.00 70 972.7
20260509003146 76 199 8.0 13.0 0.00 0.00 0.00 70 972.7
20260509002134 76 188 6.0 14.0 0.00 0.00 0.00 69 972.9
20260509001627 76 215 7.0 14.0 0.00 0.00 0.00 69 972.8
20260509000625 77 0 8.0 16.0 0.00 0.00 0.00 69 972.6
20260509000124 77 186 8.0 16.0 0.00 0.00 0.00 69 972.6
20260508235624 77 178 8.0 14.0 0.00 0.00 0.00 68 972.5
20260508235124 77 178 9.0 17.0 0.00 0.00 0.00 68 972.3
20260508234621 78 174 9.0 17.0 0.00 0.00 0.00 67 972.2
20260508234122 78 178 10.0 17.0 0.00 0.00 0.00 68 972.2
20260508233622 78 176 9.0 16.0 0.00 0.00 0.00 67 972.1
20260508232619 79 184 8.0 16.0 0.00 0.00 0.00 66 972.0
20260508230618 79 198 11.0 21.0 0.00 0.00 0.00 66 972.3
20260508225618 79 163 9.0 16.0 0.00 0.00 0.00 65 972.3
20260508225118 79 179 8.0 15.0 0.00 0.00 0.00 65 972.4
20260508224611 79 188 8.0 12.0 0.00 0.00 0.00 65 972.5
20260508224105 79 199 7.0 14.0 0.00 0.00 0.00 65 972.5
20260508223102 79 181 8.0 14.0 0.00 0.00 0.00 66 972.6
20260508222102 80 179 7.0 13.0 0.00 0.00 0.00 64 972.5
20260508221602 80 180 7.0 13.0 0.00 0.00 0.00 63 972.6
20260508221102 80 215 7.0 13.0 0.00 0.00 0.00 64 972.7
20260508220601 80 169 7.0 14.0 0.00 0.00 0.00 64 972.6
20260508215601 79 175 7.0 15.0 0.00 0.00 0.00 64 972.9
20260508215103 79 198 9.0 15.0 0.00 0.00 0.00 64 973.0
20260508214601 79 167 9.0 15.0 0.00 0.00 0.00 64 973.1
20260508214058 79 153 9.0 18.0 0.00 0.00 0.00 64 972.8
20260508213557 80 151 9.0 18.0 0.00 0.00 0.00 64 972.9
20260508213057 80 192 8.0 16.0 0.00 0.00 0.00 65 972.8
20260508212558 80 180 8.0 16.0 0.00 0.00 0.00 64 972.9
20260508212057 80 173 8.0 17.0 0.00 0.00 0.00 63 973.0
20260508211057 80 173 8.0 16.0 0.00 0.00 0.00 63 973.2
20260508210557 80 183 9.0 16.0 0.00 0.00 0.00 62 973.4
20260508204553 79 140 10.0 16.0 0.00 0.00 0.00 63 973.6
20260508204053 80 180 9.0 16.0 0.00 0.00 0.00 63 973.7
20260508203554 80 222 8.0 16.0 0.00 0.00 0.00 63 973.7
20260508203054 80 169 8.0 16.0 0.00 0.00 0.00 63 973.8
20260508202053 80 178 9.0 16.0 0.00 0.00 0.00 62 973.9
20260508201057 80 164 9.0 18.0 0.00 0.00 0.00 62 974.0
20260508200556 80 194 8.0 18.0 0.00 0.00 0.00 62 973.9
20260508200049 80 0 8.0 15.0 0.00 0.00 0.00 62 974.0
20260508195547 80 208 10.0 24.0 0.00 0.00 0.00 61 974.0
20260508194048 80 182 9.0 18.0 0.00 0.00 0.00 61 974.3
20260508193547 79 191 9.0 18.0 0.00 0.00 0.00 61 974.4
20260508193047 79 166 9.0 18.0 0.00 0.00 0.00 61 974.4
20260508192547 80 175 9.0 20.0 0.00 0.00 0.00 61 974.4
20260508192045 79 167 10.0 20.0 0.00 0.00 0.00 62 974.6
20260508191545 79 182 9.0 18.0 0.00 0.00 0.00 63 974.7
20260508191050 79 149 9.0 16.0 0.00 0.00 0.00 62 974.7
20260508190545 78 182 9.0 19.0 0.00 0.00 0.00 62 974.7
20260508185543 77 175 8.0 16.0 0.00 0.00 0.00 64 974.9
20260508185043 77 173 8.0 16.0 0.00 0.00 0.00 63 975.0
20260508183535 77 175 6.0 12.0 0.00 0.00 0.00 63 975.3
20260508183028 77 227 6.0 12.0 0.00 0.00 0.00 63 975.5
20260508182523 76 201 7.0 12.0 0.00 0.00 0.00 63 975.6
20260508182018 76 162 7.0 12.0 0.00 0.00 0.00 63 975.7
20260508181511 76 164 7.0 12.0 0.00 0.00 0.00 63 975.7
20260508181005 75 173 6.0 12.0 0.00 0.00 0.00 63 975.8
20260508180458 75 219 6.0 10.0 0.00 0.00 0.00 62 975.8
20260508175952 75 198 7.0 13.0 0.00 0.00 0.00 61 976.1
20260508175447 75 202 7.0 13.0 0.00 0.00 0.00 60 976.1
20260508174941 75 175 8.0 13.0 0.00 0.00 0.00 62 976.2
20260508173928 74 144 8.0 15.0 0.00 0.00 0.00 63 976.4
20260508173422 74 161 8.0 14.0 0.00 0.00 0.00 62 976.4
20260508172410 74 142 7.0 12.0 0.00 0.00 0.00 63 976.5
20260508171906 74 163 7.0 12.0 0.00 0.00 0.00 63 976.6
20260508170853 73 147 8.0 17.0 0.00 0.00 0.00 65 976.9
20260508170347 73 138 8.0 17.0 0.00 0.00 0.00 65 977.0
20260508165840 72 198 8.0 16.0 0.00 0.00 0.00 65 977.1
20260508165334 73 202 7.0 12.0 0.00 0.00 0.00 64 977.2
20260508164828 72 132 5.0 11.0 0.00 0.00 0.00 64 977.3
20260508164323 71 164 4.0 10.0 0.00 0.00 0.00 66 977.2
20260508163817 71 173 5.0 9.0 0.00 0.00 0.00 67 977.4
20260508163311 71 175 6.0 13.0 0.00 0.00 0.00 67 977.5
20260508162805 71 189 6.0 14.0 0.00 0.00 0.00 67 977.5
20260508162259 71 192 6.0 14.0 0.00 0.00 0.00 67 977.5
20260508161752 71 166 7.0 12.0 0.00 0.00 0.00 68 977.5
20260508161246 70 182 8.0 15.0 0.00 0.00 0.00 68 977.5
20260508160740 69 167 8.0 15.0 0.00 0.00 0.00 68 977.5
20260508160235 69 198 7.0 14.0 0.00 0.00 0.00 69 977.6
20260508155729 70 205 8.0 14.0 0.00 0.00 0.00 68 977.7
20260508154717 69 200 7.0 14.0 0.00 0.00 0.00 71 977.8
20260508153711 67 196 8.0 15.0 0.00 0.00 0.00 74 978.0
20260508153211 67 193 7.0 15.0 0.00 0.00 0.00 75 978.0
20260508152209 66 199 7.0 12.0 0.00 0.00 0.00 78 978.1
20260508151709 65 189 6.0 12.0 0.00 0.00 0.00 79 978.2
20260508151209 65 183 6.0 10.0 0.00 0.00 0.00 79 978.2
20260508150707 65 182 6.0 10.0 0.00 0.00 0.00 79 978.3
20260508150207 65 188 6.0 11.0 0.00 0.00 0.00 79 978.3
20260508145707 65 199 4.0 11.0 0.00 0.00 0.00 80 978.4
20260508145205 65 183 4.0 8.0 0.00 0.00 0.00 80 978.4
20260508144204 64 186 4.0 8.0 0.00 0.00 0.00 81 978.4
20260508143705 63 215 3.0 7.0 0.00 0.00 0.00 82 978.5
20260508143205 63 215 3.0 6.0 0.00 0.00 0.00 82 978.6
20260508142703 63 231 3.0 6.0 0.00 0.00 0.00 83 978.7
20260508142201 62 232 3.0 6.0 0.00 0.00 0.00 83 978.7
20260508141201 62 0 4.0 8.0 0.00 0.00 0.00 83 978.7
20260508140654 62 0 4.0 7.0 0.00 0.00 0.00 83 978.8
20260508140151 62 208 4.0 7.0 0.00 0.00 0.00 82 978.8
20260508135650 62 222 5.0 11.0 0.00 0.00 0.00 81 978.7
20260508135151 62 0 5.0 11.0 0.00 0.00 0.00 80 978.6
20260508134654 62 0 3.0 8.0 0.00 0.00 0.00 80 978.7
20260508133648 62 197 4.0 8.0 0.00 0.00 0.00 81 978.9
20260508133148 62 200 4.0 8.0 0.00 0.00 0.00 81 978.8
20260508132649 62 211 5.0 9.0 0.00 0.00 0.00 81 978.7
20260508132148 62 184 5.0 9.0 0.00 0.00 0.00 81 978.8
20260508131649 62 183 5.0 9.0 0.00 0.00 0.00 81 978.9
20260508131149 62 194 6.0 10.0 0.00 0.00 0.00 81 978.8
20260508130644 62 198 6.0 11.0 0.00 0.00 0.00 81 978.8
20260508130144 62 171 5.0 11.0 0.00 0.00 0.00 82 978.8
20260508125645 61 180 3.0 9.0 0.00 0.00 0.00 82 978.8
20260508125145 61 202 2.0 5.0 0.00 0.00 0.00 82 979.0
20260508124645 61 184 2.0 5.0 0.00 0.00 0.00 82 978.9
20260508123645 60 183 3.0 7.0 0.00 0.00 0.00 82 978.9
20260508123144 60 170 4.0 8.0 0.00 0.00 0.00 82 978.7
20260508122645 60 147 4.0 8.0 0.00 0.00 0.00 82 978.5
20260508122144 60 162 4.0 8.0 0.00 0.00 0.00 82 978.7
20260508121645 60 188 2.0 5.0 0.00 0.00 0.00 82 978.7
20260508121144 60 187 3.0 9.0 0.00 0.00 0.00 83 978.5
20260508120644 60 181 4.0 9.0 0.00 0.00 0.00 83 978.5
20260508120143 60 183 4.0 8.0 0.00 0.00 0.00 83 978.6
20260508114641 59 189 3.0 7.0 0.00 0.00 0.00 82 978.5
20260508114140 59 189 3.0 8.0 0.00 0.00 0.00 81 978.4
20260508113141 59 209 2.0 8.0 0.00 0.00 0.00 81 978.5
20260508112644 59 190 3.0 8.0 0.00 0.00 0.00 81 978.5
20260508112138 59 162 3.0 7.0 0.00 0.00 0.00 81 978.1
20260508111125 59 198 3.0 6.0 0.00 0.00 0.00 81 978.4
20260508105608 58 206 0.0 4.0 0.00 0.00 0.00 82 978.0
20260508105101 58 206 1.0 4.0 0.00 0.00 0.00 82 978.0
20260508104556 58 206 1.0 4.0 0.00 0.00 0.00 82 977.9
20260508104049 58 207 0.0 3.0 0.00 0.00 0.00 82 977.9
20260508103543 58 207 0.0 2.0 0.00 0.00 0.00 82 977.9
20260508103037 58 207 0.0 2.0 0.00 0.00 0.00 83 978.0
20260508102531 58 207 0.0 1.0 0.00 0.00 0.00 82 977.9
20260508102025 58 207 0.0 1.0 0.00 0.00 0.00 83 977.9
20260508101517 58 207 0.0 0.0 0.00 0.00 0.00 83 977.8
20260508101011 58 207 0.0 0.0 0.00 0.00 0.00 82 977.8
20260508100505 58 207 0.0 1.0 0.00 0.00 0.00 82 977.9
20260508100000 59 207 0.0 3.0 0.00 0.00 0.00 82 977.8
20260508094947 58 207 0.0 0.0 0.00 0.00 0.00 82 977.8
20260508094442 58 207 0.0 0.0 0.00 0.00 0.00 82 977.9
20260508093936 58 207 0.0 2.0 0.00 0.00 0.00 81 977.9
20260508093430 58 207 1.0 4.0 0.00 0.00 0.00 81 978.2
20260508092923 58 207 1.0 4.0 0.00 0.00 0.00 81 977.7
20260508092418 58 209 0.0 2.0 0.00 0.00 0.00 81 978.1
20260508091911 58 209 0.0 3.0 0.00 0.00 0.00 81 978.2
20260508090353 56 208 1.0 4.0 0.00 0.00 0.00 82 978.3
20260508085848 56 204 0.0 3.0 0.00 0.00 0.00 82 978.3
20260508085342 56 203 0.0 1.0 0.00 0.00 0.00 81 978.2
20260508084836 56 202 0.0 2.0 0.00 0.00 0.00 81 978.2
20260508084329 56 202 0.0 2.0 0.00 0.00 0.00 80 978.1
20260508083824 57 203 0.0 0.0 0.00 0.00 0.00 81 977.9
20260508083317 57 203 0.0 0.0 0.00 0.00 0.00 81 977.9
20260508082812 57 203 0.0 0.0 0.00 0.00 0.00 81 978.1
20260508081810 57 203 0.0 2.0 0.00 0.00 0.00 80 978.4
20260508080304 57 203 0.0 4.0 0.00 0.00 0.00 80 978.6
20260508075802 57 203 0.0 4.0 0.00 0.00 0.00 80 978.8
20260508075300 57 202 1.0 4.0 0.00 0.00 0.00 80 978.7
20260508074758 57 202 2.0 5.0 0.00 0.00 0.00 80 979.0
20260508074256 57 202 3.0 5.0 0.00 0.00 0.00 80 979.0
20260508073756 57 188 3.0 4.0 0.00 0.00 0.00 80 978.9
20260508073256 57 186 2.0 4.0 0.00 0.00 0.00 79 979.2
20260508072759 57 179 2.0 4.0 0.00 0.00 0.00 79 979.2
20260508072256 57 179 2.0 4.0 0.00 0.00 0.00 79 979.2
20260508071756 57 179 1.0 4.0 0.00 0.00 0.00 79 979.2
20260508071256 57 179 1.0 2.0 0.00 0.00 0.00 79 979.1
20260508070754 58 179 1.0 3.0 0.00 0.00 0.00 78 979.1
20260508070254 58 179 2.0 3.0 0.00 0.00 0.00 77 979.3
20260508065253 58 179 2.0 4.0 0.00 0.00 0.00 77 979.4
20260508064748 58 179 1.0 3.0 0.00 0.00 0.00 77 979.5
20260508064242 58 179 1.0 3.0 0.00 0.00 0.00 77 979.5
20260508063736 58 179 1.0 3.0 0.00 0.00 0.00 77 979.6
20260508062724 59 179 1.0 3.0 0.00 0.00 0.00 77 979.7
20260508062218 58 179 1.0 3.0 0.00 0.00 0.00 77 979.6
20260508061713 59 179 1.0 3.0 0.00 0.00 0.00 76 979.7
20260508061212 59 179 1.0 3.0 0.00 0.00 0.00 76 979.8
20260508060712 59 179 1.0 4.0 0.00 0.00 0.00 75 979.7
20260508060211 60 179 1.0 4.0 0.00 0.00 0.00 75 979.7
20260508055710 59 178 1.0 3.0 0.00 0.00 0.00 76 979.6
20260508055208 59 178 1.0 3.0 0.00 0.00 0.00 76 979.7
20260508054706 59 178 1.0 3.0 0.00 0.00 0.00 76 979.7
20260508054209 59 178 0.0 3.0 0.00 0.00 0.00 76 979.5
20260508053709 59 177 1.0 6.0 0.00 0.00 0.00 76 979.6
20260508052204 59 172 0.0 2.0 0.00 0.00 0.00 76 979.6
20260508051701 58 172 0.0 2.0 0.00 0.00 0.00 76 979.8
20260508051159 59 172 0.0 2.0 0.00 0.00 0.00 76 979.7
20260508050659 59 172 0.0 2.0 0.00 0.00 0.00 75 979.7
20260508050200 59 172 0.0 2.0 0.00 0.00 0.00 75 979.8
20260508045657 60 172 0.0 2.0 0.00 0.00 0.00 74 980.0
20260508045156 60 172 1.0 3.0 0.00 0.00 0.00 74 980.0
20260508044653 60 172 1.0 3.0 0.00 0.00 0.00 73 979.9
20260508044153 60 172 0.0 0.0 0.00 0.00 0.00 73 979.9
20260508043653 61 172 0.0 0.0 0.00 0.00 0.00 72 980.0
20260508043152 61 172 0.0 1.0 0.00 0.00 0.00 71 979.9